Weather History for KCNC - February, 2013

Change the Weather History Date:

Tuesday, February 26, 2013

  Actual Average Record
Temperature  
Mean Temperature 32 °F -  
Max Temperature 33 °F 43 °F 66 °F (1988)
Min Temperature 30 °F 21 °F -24 °F (1963)
Degree Days  
Heating Degree Days 34    
Moisture  
Dew Point 28 °F    
Average Humidity 91    
Maximum Humidity 93    
Minimum Humidity 81    
Precipitation  
Precipitation 0.17 in - - ()
Sea Level Pressure  
Sea Level Pressure 29.71 in    
Wind  
Wind Speed - (North)    
Max Wind Speed -    
Max Gust Speed -    
Visibility 2 miles    
Events Snow    
Averages and records for this station are not official NWS values.
T = Trace of Precipitation, MM = Missing Value Source: NWS Daily Summary

Daily Weather History Graph

Daily Weather History Graph

Search for Another Location

Airport or City:

Trip Planner

Search our weather history database for the weather conditions in past years. The results will help you decide how hot, cold, wet, or windy it might be!

Date:

Astronomy

Feb. 26, 2013 Rise Set
Actual Time 6:51 AM CST 6:01 PM CST
Civil Twilight 6:24 AM CST 6:29 PM CST
Nautical Twilight 5:52 AM CST 7:00 PM CST
Astronomical Twilight 5:20 AM CST 7:32 PM CST
Moon 7:19 PM CST (2/26) 6:53 AM CST (2/26)
Length of Visible Light 12h 04m
Length of Day
11h 09m
Full, 99% of the Moon is Illuminated
Feb 26
Full
Mar 4
Last Quarter
Mar 11
New
Mar 19
First Quarter
Mar 27
Full

Hourly Weather History & Observations

Time (CST) Temp. Dew Point Humidity Pressure Visibility Wind Dir Wind Speed Gust Speed Precip Events Conditions
12:15 AM 33.8 °F 28.4 °F 81% 29.83 in 10.0 mi North - - N/A   Overcast
12:35 AM 33.8 °F 28.4 °F 81% 29.82 in 7.0 mi North - - N/A   Mostly Cloudy
12:55 AM 33.8 °F 28.4 °F 81% 29.80 in 10.0 mi North - - N/A   Mostly Cloudy
1:15 AM 33.8 °F 28.4 °F 81% 29.80 in 7.0 mi North - - N/A   Scattered Clouds
1:35 AM 33.8 °F 28.4 °F 81% 29.79 in 7.0 mi North - - N/A   Overcast
1:55 AM 33.8 °F 28.4 °F 81% 29.79 in 7.0 mi North - - N/A   Overcast
2:15 AM 33.8 °F 28.4 °F 81% 29.78 in 7.0 mi North - - N/A   Mostly Cloudy
2:35 AM 33.8 °F 28.4 °F 81% 29.77 in 7.0 mi North - - N/A   Mostly Cloudy
2:55 AM 33.8 °F 28.4 °F 81% 29.75 in 7.0 mi North - - N/A   Overcast
3:15 AM 33.8 °F 28.4 °F 81% 29.74 in 7.0 mi North - - N/A   Overcast
3:35 AM 33.8 °F 28.4 °F 81% 29.74 in 5.0 mi North - - N/A   Haze
3:55 AM 32.0 °F 28.4 °F 87% 29.74 in 1.5 mi North - - N/A Snow Light Snow
4:15 AM 30.2 °F 28.4 °F 93% 29.74 in 1.0 mi North - - N/A Snow Light Snow
4:35 AM 30.2 °F 28.4 °F 93% 29.73 in 0.5 mi North - - N/A Snow Snow
4:55 AM 30.2 °F 28.4 °F 93% 29.72 in 1.0 mi North - - 0.01 in Snow Light Snow
5:15 AM 30.2 °F 28.4 °F 93% 29.71 in 0.5 mi North - - 0.01 in Snow Snow
5:35 AM 30.2 °F 28.4 °F 93% 29.71 in 0.8 mi North - - 0.03 in Snow Snow
5:55 AM 30.2 °F 28.4 °F 93% 29.71 in 1.0 mi North - - 0.03 in Snow Light Snow
6:15 AM 30.2 °F 28.4 °F 93% 29.71 in 1.0 mi North - - 0.01 in Snow Light Snow
6:35 AM 30.2 °F 28.4 °F 93% 29.72 in 1.0 mi North - - 0.02 in Snow Light Snow
6:55 AM 30.2 °F 28.4 °F 93% 29.73 in 0.8 mi North - - 0.03 in Snow Snow
7:15 AM 30.2 °F 28.4 °F 93% 29.72 in 0.2 mi North - - 0.02 in Snow Snow
7:35 AM 30.2 °F 28.4 °F 93% 29.71 in 0.2 mi North - - 0.03 in Snow Snow
7:55 AM 30.2 °F 28.4 °F 93% 29.71 in 0.8 mi North - - 0.04 in Snow Light Snow
8:15 AM 30.2 °F 28.4 °F 93% 29.71 in 0.8 mi North - - N/A Snow Light Snow
8:35 AM 30.2 °F 28.4 °F 93% 29.70 in 0.5 mi North - - 0.01 in Snow Snow
8:55 AM 30.2 °F 28.4 °F 93% 29.69 in 0.8 mi North - - 0.01 in Snow Light Snow
9:15 AM 30.2 °F 28.4 °F 93% 29.69 in 1.2 mi North - - N/A Snow Light Snow
9:35 AM 30.2 °F 28.4 °F 93% 29.68 in 0.8 mi North - - N/A Snow Light Snow
9:55 AM 30.2 °F 26.6 °F 86% 29.67 in 3.0 mi North - - N/A Snow Light Snow
10:15 AM 30.2 °F 28.4 °F 93% 29.67 in 1.0 mi North - - N/A Snow Light Snow
10:35 AM 30.2 °F 28.4 °F 93% 29.67 in 3.0 mi North - - N/A Snow Light Snow
10:55 AM 30.2 °F 28.4 °F 93% 29.66 in 4.0 mi North - - N/A Snow Light Snow
11:15 AM 32.0 °F 28.4 °F 87% 29.65 in 2.5 mi North - - N/A Snow Light Snow
11:35 AM 32.0 °F 28.4 °F 87% 29.65 in 2.0 mi North - - N/A Snow Light Snow
11:55 AM 32.0 °F 28.4 °F 87% 29.65 in 1.2 mi North - - N/A Snow Light Snow
12:15 PM 30.2 °F 28.4 °F 93% 29.63 in 1.2 mi North - - N/A Snow Light Snow
12:35 PM 30.2 °F 28.4 °F 93% 29.63 in 1.0 mi North - - N/A Snow Light Snow
12:55 PM 30.2 °F 28.4 °F 93% 29.62 in 0.5 mi North - - 0.01 in Snow Light Snow
1:15 PM 30.2 °F 28.4 °F 93% 29.62 in 0.5 mi North - - N/A Snow Snow
1:35 PM 30.2 °F 28.4 °F 93% 29.62 in 0.5 mi North - - N/A Snow Light Snow
1:55 PM 30.2 °F 28.4 °F 93% 29.62 in 1.0 mi North - - 0.01 in Snow Light Snow
2:15 PM 30.2 °F 28.4 °F 93% 29.63 in 1.0 mi North - - N/A Snow Light Snow
2:35 PM 30.2 °F 28.4 °F 93% 29.64 in 1.0 mi North - - N/A Snow Light Snow
2:55 PM 30.2 °F 28.4 °F 93% 29.65 in 1.0 mi North - - N/A Snow Light Snow
3:15 PM 30.2 °F 28.4 °F 93% 29.66 in 1.2 mi North - - N/A Snow Light Snow
3:35 PM 30.2 °F 28.4 °F 93% 29.67 in 1.0 mi North - - N/A Snow Light Snow
3:55 PM 30.2 °F 28.4 °F 93% 29.67 in 0.8 mi North - - 0.01 in Snow Light Snow
4:15 PM 30.2 °F 28.4 °F 93% 29.67 in 1.0 mi North - - N/A Snow Light Snow
4:35 PM 30.2 °F 28.4 °F 93% 29.68 in 1.0 mi North - - 0.01 in Snow Light Snow
4:55 PM 30.2 °F 28.4 °F 93% 29.69 in 1.5 mi North - - 0.01 in Snow Light Snow
5:15 PM 30.2 °F 28.4 °F 93% 29.69 in 1.8 mi North - - N/A Snow Light Snow
5:35 PM 30.2 °F 28.4 °F 93% 29.70 in 2.5 mi North - - N/A Snow Light Snow
5:55 PM 30.2 °F 28.4 °F 93% 29.72 in 4.0 mi North - - N/A Snow Light Snow
6:15 PM 30.2 °F 28.4 °F 93% 29.72 in 5.0 mi North - - N/A   Overcast
6:35 PM 30.2 °F 28.4 °F 93% 29.73 in 5.0 mi North - - N/A Snow Light Snow
6:55 PM 30.2 °F 28.4 °F 93% 29.74 in 5.0 mi North - - N/A Snow Light Snow
7:15 PM 30.2 °F 28.4 °F 93% 29.74 in 3.0 mi North - - N/A Snow Light Snow
7:35 PM 30.2 °F 28.4 °F 93% 29.74 in 2.0 mi North - - N/A Snow Light Snow
7:55 PM 30.2 °F 28.4 °F 93% 29.75 in 2.0 mi North - - N/A Snow Light Snow
8:15 PM 30.2 °F 28.4 °F 93% 29.75 in 1.5 mi North - - N/A Snow Light Snow
8:35 PM 30.2 °F 28.4 °F 93% 29.75 in 1.2 mi North - - N/A Snow Light Snow
8:55 PM 30.2 °F 28.4 °F 93% 29.76 in 1.0 mi North - - N/A Snow Light Snow
9:15 PM 30.2 °F 28.4 °F 93% 29.76 in 1.5 mi North - - N/A Snow Light Snow
9:35 PM 30.2 °F 28.4 °F 93% 29.76 in 1.5 mi North - - N/A Snow Light Snow
9:55 PM 30.2 °F 28.4 °F 93% 29.76 in 1.5 mi North - - 0.01 in Snow Light Snow
10:15 PM 30.2 °F 28.4 °F 93% 29.76 in 1.0 mi North - - N/A Snow Snow
10:55 PM 30.2 °F 28.4 °F 93% 29.77 in 2.5 mi North - - N/A Snow Light Snow
11:15 PM 30.2 °F 28.4 °F 93% 29.77 in 3.0 mi North - - N/A Snow Light Snow
11:35 PM 30.2 °F 28.4 °F 93% 29.76 in 2.5 mi North - - N/A Snow Light Snow
11:55 PM 30.2 °F 28.4 °F 93% 29.76 in 3.0 mi North - - N/A Snow Light Snow